총 게시물 115건, 최근 0 건
   

이번주 행사들 1/29-2/4

글쓴이 : 홍수희 날짜 : 2018-01-30 (화) 15:00 조회 : 298

Top 9 Things to Do with Kids This Week in Houston

  • School of Rock The Musical at the Hobby Center for the Performing Arts | Tuesday, January 30 through Sunday, February 2 – Andrew Lloyd Webber lends his signature style to this energetic musical based on the hit film. Dewey Finn wants to be a rock star, but he needs to pay rent. He poses as a substitute teacher and turns a prep-school class of straight-A students into one killer band. Tickets range between $35 to $140. Tuesday to Thursday at 7:30pm; Friday and Saturday at 8pm; Saturday and Sunday at 2pm.
  • The Wiz Movie Screening Party at Alamo Drafthouse Mason Park | Thursday, February 1 –Strap on your dancing shoes and warm up your pipes for an interactive showing of The Wiz, a soulful ‘70s spinoff of The Wizard of Oz, featuring musical giants Diana Ross, Michael Jackson, and Lena Horne. Rainbow-themed props and other surprises included. Tickets start at $12.99. 7:30pm.
  • Youth Poetry Performance Session at Discovery Green | Friday, February 2 | FREE – Writers in the Schools offers free writing and slam poetry workshops for budding poets ages 13 to 19 at Discovery Green park. Space is limited. 6:30pm to 8pm.
  • Secret Life of Pets Movie Screening at Memorial City | Friday, February 2 | FREE – Bring your lawn chair or a blanket and enjoy complimentary popcorn while you watch a screening of Secret Life of Pets at Memorial City. 7pm to 9pm.
  • Kids 1st Saturday at The Breakfast Klub | Saturday, February 3 | FREE – Bring the kiddos over to The Breakfast Klub restaurant for a morning featuring a moonwalk, a face painter, arts & crafts, and kid-friendly entertainment. 10am.
  • Tree ID Walk at Nature Discovery Center | Saturday, February 3 | FREE – Jim McKee, a Master Naturalist, tree lover, and bird watcher leads a family-friendly walk in the park to help you identify the trees that live in Russ Pitman Park. 10am.
  • Open Studio: Make Valentines at CAMH | Saturday, February 3 | FREE – Make Valentine’s cards inspired by current artist Christopher Knowles’s text-based works at the Contemporary Arts Museum, Houston. 2pm to 4pm.
  • Prelude Music Concert at Levy Park | Saturday, February 3 | FREE – Bring the whole family for some fun outdoor music making with a live band at Levy Park. 4:30pm to 5:30pm.
  • 2018 Countdown to Kickoff: Big Game Watch Party at Memorial City | Sunday, February 4 | FREE – Cheer on your favorite team as Memorial City shows the big bame on the 28’ x 14’ big screen TV on The Square. Refreshments will be available for purchase and 104.1 KRBE will be there with prizes. 3pm to 10pm.

☞특수문자
hi
   

총 게시물 115건, 최근 0 건
번호 제목 글쓴이 날짜 조회
 GPS에 오신것을 환영합니다! 홍수희 2017-06-21 602
115  휴스톤 행사 3/18-3/24 홍수희 2019-03-17 5
114  휴스톤 행사 3/11 - 3/17 홍수희 2019-03-11 8
113  휴스톤 행사 3/4 - 3/10 홍수희 2019-03-04 14
112  휴스톤 행사 2/25 - 3/3 홍수희 2019-02-25 16
111  휴스톤 행사 2/18-2/24 홍수희 2019-02-18 31
110  휴스톤 행상 2/11- 2/17 홍수희 2019-02-11 26
109  휴스톤 행사 2/4 -2/10 홍수희 2019-02-04 38
108  휴스톤 행사 1/28 - 2/3 홍수희 2019-01-28 46
107  GPS 5기 등록 신청 받습니다. 홍수희 2019-01-23 55
106  휴스톤 행사 1/21-1/27 홍수희 2019-01-22 47
105  휴스톤 행사 1/14-1/20 홍수희 2019-01-15 48
104  휴스톤 행사 1/7- 1/13 홍수희 2019-01-08 54
103  휴스톤 행사 12/31 - 1/6/2019 홍수희 2018-12-31 70
102  휴스톤 행사 12/24 - 12/30 홍수희 2018-12-25 51
101  휴스톤 행사 12/17-12/23 홍수희 2018-12-18 62
100  휴스톤 행사 12/10-12/16 홍수희 2018-12-10 58
99  Christmas Lights and Decorations 홍수희 2018-12-03 94
98  휴스톤 지역교회 크리스마스 공연들 2 홍수희 2018-12-03 89
97  휴스톤 지역교회 크리스마스 공연들 1 홍수희 2018-12-03 78
96  가족들이 함께 할 수 있는 크리스마스 공연들 홍수희 2018-12-03 88
95  12월-1월에 있는 크리스마스 행사들 홍수희 2018-12-03 78
94  휴스톤 행사 12/3-12/9 홍수희 2018-12-03 72
93  휴스톤 행사 11/26-12/2 홍수희 2018-11-26 73
92  휴스톤 행사 11/19-11/25 홍수희 2018-11-20 66
91  휴스톤 행사 11/12-11/18 홍수희 2018-11-13 81
90  휴스톤 행사 10/22-10/28 홍수희 2018-10-22 95
89  휴스톤행사 10/15-10/21 홍수희 2018-10-15 93
88  휴스톤 행사 10/9 - 10/14 홍수희 2018-10-08 122
87  휴스톤 행사 10/1-10/7 홍수희 2018-10-02 92
86  휴스톤 주말 행사들 홍수희 2018-08-17 122
85  이번주 휴스톤 8/6-8/12 홍수희 2018-08-07 124
84  이번주 휴스톤 이벤트 7/30-8/5 홍수희 2018-07-30 134
83  이번주 휴스톤 이벤트 7/23-7/29 홍수희 2018-07-23 127
82  2018 휴스톤 레스토랑 위크 (2018 Houston Restaurant Week) 홍수희 2018-07-19 171
81  이번주 휴스톤 이벤트 7/16-7/22 홍수희 2018-07-16 128
80  휴스톤 이벤트 7/9-7/15 홍수희 2018-07-10 126
79  휴스톤 이벤트 7/2-7/8 홍수희 2018-07-02 139
78  휴스톤 이벤트 6/25-6/30 홍수희 2018-06-26 133
77  휴스톤 이벤트 6/18-6/24 홍수희 2018-06-19 155
76  이번주 휴스톤 이벤트 6/11-6/17 홍수희 2018-06-12 158
75  이번주 휴스톤 이벤트 6/4-6/10 홍수희 2018-06-04 161
74  휴스톤 이벤트 5/28-6/3 홍수희 2018-05-29 164
73  이번주 휴스톤 이벤트 5/22-5/27 홍수희 2018-05-23 156
72  휴스톤 미술관 (Museum of Fine Arts)에서 이런 이벤트를 하네요 홍수희 2018-05-16 169
71  휴스톤 이벤트 5/14-5/20 홍수희 2018-05-16 165
70  휴스톤 이벤트 5/7-5/13 홍수희 2018-05-08 167
69  싸운드 오브 뮤직 공연이 휴스톤 존스홀에서 있습니다. 6/1-6/ 홍수희 2018-04-25 352
68  이번주 아이들과 할 수 있는 휴스톤 이벤트 홍수희 2018-04-25 183
67  Texas Tax Free Weenkend 홍수희 2018-04-23 176
66  휴스톤 이벤트 4/16-4/22 홍수희 2018-04-17 173
 1  2  3  맨끝